When you browse on this site, cookies collect data to enhance your experience and personalize the content and advertising you see.
Visit our Privacy Policy to learn more. By continuing to use the site, you agree to this use of cookies and data.
  • în România
  • Lista ţărilor
  • Pe 7 zile
  • Temperatura apei
  • Meteo pe hartă
  • Widget-uri
  • user-avatar
    Intrare

    Meteo pe oră la Enugu

    Astăzi, 25 Mai, Luni

    Timp Temperatura Precipitaţii Vânt Presiune Umiditate
    00:00 +26°C° 0.5 mm 2 m/s 738 mmHg 93%
    01:00 +26°C° 0 mm 2 m/s 738 mmHg 94%
    02:00 +25°C° 1.5 mm 2 m/s 738 mmHg 95%
    03:00 +25°C° 1.5 mm 2 m/s 738 mmHg 95%
    04:00 +25°C° 1.5 mm 2 m/s 737 mmHg 96%
    05:00 +25°C° 0.3 mm 2 m/s 738 mmHg 96%
    06:00 +25°C° 0.3 mm 1 m/s 738 mmHg 96%
    07:00 +23°C° 0 mm 0 m/s 738 mmHg 94%
    08:00 +24°C° 0 mm 0 m/s 738 mmHg 89%
    09:00 +26°C° 0 mm 0 m/s 739 mmHg 85%
    10:00 +27°C° 0 mm 0 m/s 739 mmHg 80%
    11:00 +28°C° 0 mm 0 m/s 738 mmHg 75%
    12:00 +31°C° 0 mm 1 m/s 738 mmHg 70%
    13:00 +31°C° 0 mm 1 m/s 738 mmHg 69%
    14:00 +31°C° 0.9 mm 1 m/s 737 mmHg 71%
    15:00 +31°C° 0.9 mm 1 m/s 736 mmHg 74%
    16:00 +30°C° 0.9 mm 1 m/s 736 mmHg 76%
    17:00 +29°C° 1.3 mm 1 m/s 736 mmHg 80%
    18:00 +28°C° 1.3 mm 1 m/s 736 mmHg 84%
    19:00 +27°C° 1.3 mm 1 m/s 737 mmHg 89%
    20:00 +27°C° 1.5 mm 1 m/s 737 mmHg 91%
    21:00 +26°C° 1.5 mm 1 m/s 738 mmHg 93%
    22:00 +26°C° 1.5 mm 2 m/s 738 mmHg 95%
    23:00 +25°C° 0.3 mm 2 m/s 738 mmHg 95%

    Mâine, 26 Mai, Marţi

    Timp Temperatura Precipitaţii Vânt Presiune Umiditate
    00:00 +25°C° 0.3 mm 2 m/s 738 mmHg 96%
    01:00 +25°C° 0.3 mm 2 m/s 738 mmHg 97%
    02:00 +25°C° 0.4 mm 1 m/s 738 mmHg 96%
    03:00 +25°C° 0.4 mm 1 m/s 738 mmHg 96%
    04:00 +23°C° 0.4 mm 0 m/s 737 mmHg 96%
    05:00 +23°C° 0.7 mm 0 m/s 738 mmHg 95%
    06:00 +23°C° 0.7 mm 0 m/s 738 mmHg 94%
    07:00 +23°C° 0.7 mm 0 m/s 738 mmHg 94%
    08:00 +25°C° 0.2 mm 0 m/s 739 mmHg 88%
    09:00 +26°C° 0.2 mm 0 m/s 739 mmHg 83%
    10:00 +30°C° 0.2 mm 1 m/s 740 mmHg 77%
    11:00 +31°C° 0 mm 1 m/s 739 mmHg 74%
    12:00 +31°C° 0 mm 1 m/s 738 mmHg 71%
    13:00 +32°C° 0 mm 1 m/s 738 mmHg 69%
    14:00 +32°C° 0.1 mm 1 m/s 737 mmHg 69%
    15:00 +32°C° 0.1 mm 1 m/s 736 mmHg 69%
    16:00 +32°C° 0.1 mm 1 m/s 736 mmHg 69%
    17:00 +31°C° 0.3 mm 1 m/s 736 mmHg 75%
    18:00 +30°C° 0.3 mm 1 m/s 736 mmHg 80%
    19:00 +28°C° 0.3 mm 1 m/s 736 mmHg 85%
    20:00 +28°C° 0.1 mm 1 m/s 736 mmHg 86%
    21:00 +28°C° 0.1 mm 1 m/s 737 mmHg 87%
    22:00 +27°C° 0.1 mm 1 m/s 737 mmHg 89%
    23:00 +27°C° 0 mm 1 m/s 738 mmHg 90%

    Poimâine, 27 Mai, Miercuri

    Timp Temperatura Precipitaţii Vânt Presiune Umiditate
    00:00 +27°C° 0 mm 1 m/s 738 mmHg 91%
    01:00 +26°C° 0 mm 1 m/s 738 mmHg 92%
    02:00 +26°C° 0 mm 1 m/s 738 mmHg 92%
    03:00 +26°C° 0 mm 1 m/s 737 mmHg 93%
    04:00 +26°C° 0 mm 1 m/s 737 mmHg 93%
    05:00 +26°C° 0.2 mm 1 m/s 738 mmHg 93%
    06:00 +26°C° 0.2 mm 1 m/s 738 mmHg 93%
    07:00 +24°C° 0.2 mm 0 m/s 738 mmHg 93%
    08:00 +26°C° 0.2 mm 1 m/s 739 mmHg 92%
    09:00 +27°C° 0.2 mm 2 m/s 739 mmHg 91%
    10:00 +27°C° 0.2 mm 2 m/s 739 mmHg 90%
    11:00 +28°C° 0 mm 2 m/s 739 mmHg 85%
    12:00 +29°C° 0 mm 1 m/s 738 mmHg 81%
    13:00 +30°C° 0 mm 1 m/s 737 mmHg 76%
    14:00 +31°C° 0 mm 1 m/s 737 mmHg 74%
    15:00 +31°C° 0 mm 1 m/s 736 mmHg 72%
    16:00 +32°C° 0 mm 1 m/s 736 mmHg 70%
    17:00 +31°C° 0 mm 1 m/s 736 mmHg 74%
    18:00 +30°C° 0 mm 1 m/s 736 mmHg 78%
    19:00 +27°C° 0 mm 0 m/s 736 mmHg 82%
    20:00 +26°C° 0 mm 0 m/s 737 mmHg 83%
    21:00 +26°C° 0 mm 0 m/s 737 mmHg 84%
    22:00 +28°C° 0 mm 1 m/s 738 mmHg 85%
    23:00 +27°C° 0.3 mm 1 m/s 738 mmHg 87%

    28 Mai, Joi

    Timp Temperatura Precipitaţii Vânt Presiune Umiditate
    00:00 +27°C° 0.3 mm 2 m/s 737 mmHg 89%
    01:00 +27°C° 0.3 mm 2 m/s 737 mmHg 90%
    02:00 +26°C° 0.3 mm 2 m/s 737 mmHg 92%
    03:00 +26°C° 0.3 mm 2 m/s 737 mmHg 93%
    04:00 +26°C° 0.3 mm 2 m/s 736 mmHg 94%
    05:00 +26°C° 0.1 mm 2 m/s 737 mmHg 94%
    06:00 +26°C° 0.1 mm 2 m/s 737 mmHg 94%
    07:00 +26°C° 0.1 mm 2 m/s 738 mmHg 94%
    08:00 +27°C° 0 mm 2 m/s 738 mmHg 88%
    09:00 +29°C° 0 mm 2 m/s 738 mmHg 82%
    10:00 +30°C° 0 mm 2 m/s 739 mmHg 76%
    11:00 +31°C° 0.3 mm 2 m/s 738 mmHg 74%
    12:00 +31°C° 0.3 mm 2 m/s 737 mmHg 71%
    13:00 +32°C° 0.3 mm 2 m/s 737 mmHg 69%
    14:00 +32°C° 0.4 mm 2 m/s 736 mmHg 69%
    15:00 +32°C° 0.4 mm 1 m/s 736 mmHg 69%
    16:00 +32°C° 0.4 mm 1 m/s 735 mmHg 70%
    17:00 +31°C° 1.4 mm 1 m/s 735 mmHg 76%
    18:00 +29°C° 1.4 mm 2 m/s 736 mmHg 82%
    19:00 +28°C° 1.4 mm 2 m/s 736 mmHg 87%
    20:00 +27°C° 1.1 mm 2 m/s 737 mmHg 90%
    21:00 +27°C° 1.1 mm 2 m/s 737 mmHg 93%
    22:00 +26°C° 1.1 mm 2 m/s 738 mmHg 96%
    23:00 +26°C° 0 mm 2 m/s 738 mmHg 96%

    29 Mai, Vineri

    Timp Temperatura Precipitaţii Vânt Presiune Umiditate
    00:00 +25°C° 0 mm 1 m/s 737 mmHg 96%
    01:00 +25°C° 0 mm 1 m/s 737 mmHg 96%
    02:00 +25°C° 0 mm 1 m/s 737 mmHg 96%
    03:00 +25°C° 0 mm 1 m/s 737 mmHg 96%
    04:00 +25°C° 0 mm 1 m/s 737 mmHg 96%
    05:00 +25°C° 0 mm 1 m/s 737 mmHg 96%
    06:00 +25°C° 0 mm 2 m/s 737 mmHg 95%
    07:00 +25°C° 0 mm 2 m/s 737 mmHg 94%
    08:00 +26°C° 0 mm 2 m/s 738 mmHg 91%
    09:00 +27°C° 0 mm 2 m/s 738 mmHg 88%
    10:00 +28°C° 0 mm 2 m/s 738 mmHg 84%
    11:00 +29°C° 0 mm 2 m/s 738 mmHg 82%
    12:00 +29°C° 0 mm 2 m/s 737 mmHg 79%
    13:00 +30°C° 0 mm 2 m/s 736 mmHg 77%
    14:00 +31°C° 0.3 mm 2 m/s 736 mmHg 75%
    15:00 +31°C° 0.3 mm 3 m/s 736 mmHg 74%
    16:00 +33°C° 0.3 mm 3 m/s 735 mmHg 72%
    17:00 +30°C° 0.2 mm 2 m/s 735 mmHg 78%
    18:00 +29°C° 0.2 mm 2 m/s 735 mmHg 84%
    19:00 +28°C° 0.2 mm 2 m/s 736 mmHg 89%
    20:00 +27°C° 0 mm 2 m/s 736 mmHg 91%
    21:00 +27°C° 0 mm 2 m/s 737 mmHg 92%
    22:00 +26°C° 0 mm 2 m/s 737 mmHg 94%
    23:00 +26°C° 0.1 mm 1 m/s 737 mmHg 95%

    30 Mai, Sâmbătă

    Timp Temperatura Precipitaţii Vânt Presiune Umiditate
    00:00 +26°C° 0.1 mm 1 m/s 737 mmHg 95%
    01:00 +26°C° 0.1 mm 1 m/s 737 mmHg 96%
    02:00 +25°C° 0.1 mm 1 m/s 737 mmHg 96%
    03:00 +25°C° 0.1 mm 1 m/s 737 mmHg 96%
    04:00 +25°C° 0.1 mm 1 m/s 737 mmHg 96%
    05:00 +25°C° 0 mm 1 m/s 737 mmHg 96%
    06:00 +25°C° 0 mm 1 m/s 737 mmHg 95%
    07:00 +25°C° 0 mm 1 m/s 737 mmHg 95%
    08:00 +27°C° 0 mm 1 m/s 738 mmHg 87%
    09:00 +29°C° 0 mm 1 m/s 738 mmHg 79%
    10:00 +30°C° 0 mm 1 m/s 738 mmHg 71%
    11:00 +31°C° 0 mm 1 m/s 738 mmHg 67%
    12:00 +32°C° 0 mm 2 m/s 737 mmHg 63%
    13:00 +34°C° 0 mm 2 m/s 737 mmHg 60%
    14:00 +34°C° 0 mm 2 m/s 736 mmHg 62%
    15:00 +34°C° 0 mm 2 m/s 736 mmHg 64%
    16:00 +32°C° 0 mm 2 m/s 735 mmHg 66%
    17:00 +31°C° 0 mm 2 m/s 735 mmHg 71%
    18:00 +30°C° 0 mm 1 m/s 735 mmHg 76%
    19:00 +29°C° 0 mm 1 m/s 735 mmHg 81%
    20:00 +28°C° 1.2 mm 2 m/s 736 mmHg 83%
    21:00 +28°C° 1.2 mm 2 m/s 736 mmHg 86%
    22:00 +27°C° 1.2 mm 2 m/s 737 mmHg 89%
    23:00 +27°C° 0.3 mm 2 m/s 737 mmHg 91%
    Arată mai mult